Meteosat 11

operational
NORAD ID: 40732 Int'l Des: 2015-034 Owner: EUMET Country: I-EUM
HEOCIRCULARGSO

Über Meteosat 11

Beschreibung wird geladen...

Live-Position

3D-Globus wird geladen...

Nächste Überflüge

Höhenverlauf

Altitude vs Time

uPlot chart will show altitude changes over time

Zweizeiliger Elementsatz

1 40732U 15034A 26062.37444141 .00000048 00000-0 00000-0 0 9995
2 40732 2.9349 71.6876 0001800 270.5831 323.0823 1.00265776 6152
Epoch: 3. März 2026 • Age: 36 hours

Aktueller Status

Höhe 35780.6 km
Geschwindigkeit 3.08 km/s
Subsatellitenpunkt -2.90°S, 9.42°E
Startdatum 15. Juli 2015
Alter 10.6 years
Typ weather

Technische Details

Klassifizierung Payload
Masse 2043.00 kg
Trockenmasse 1000.00 kg
Gesamtmasse 2043.00 kg
Länge 2.30 m
Durchmesser 3.20 m
Spannweite 3.20 m
Form Cylinder
Hersteller THALES
Bus-Typ MSG
Phasenstatus In Orbit
Besitzer/Staat EUMET/I-EUM

Große Konstellationen

Loading constellations...